When you browse on this site, cookies collect data to enhance your experience and personalize the content and advertising you see.
Visit our Privacy Policy to learn more. By continuing to use the site, you agree to this use of cookies and data.
  • In Hungary
  • List of Countries
  • For 7 days
  • Water Temperature
  • Satellite Maps
  • Weather Map
  • News
  • Weather Widgets
  • user-avatar
    Login

    Hourly Weather Jinsha

    Today, 23 February, Saturday

    Time Temperature Precipitation Wind Pressure Humidity
    00:00 +2°C° 0 mm 3 mps 769 mmHg 88%
    01:00 +1°C° 0 mm 3 mps 769 mmHg 88%
    02:00 +2°C° 0 mm 2 mps 769 mmHg 89%
    03:00 +2°C° 0 mm 2 mps 769 mmHg 87%
    04:00 +2°C° 0 mm 2 mps 769 mmHg 86%
    05:00 +2°C° 0 mm 2 mps 769 mmHg 84%
    06:00 +1°C° 0 mm 3 mps 769 mmHg 81%
    07:00 +2°C° 0 mm 3 mps 769 mmHg 78%
    08:00 +3°C° 0 mm 3 mps 768 mmHg 74%
    09:00 +4°C° 0 mm 3 mps 769 mmHg 68%
    10:00 +7°C° 0 mm 3 mps 769 mmHg 62%
    11:00 +8°C° 0 mm 3 mps 769 mmHg 57%
    12:00 +9°C° 0 mm 3 mps 769 mmHg 54%
    13:00 +9°C° 0 mm 3 mps 768 mmHg 51%
    14:00 +10°C° 0 mm 3 mps 768 mmHg 48%
    15:00 +9°C° 0 mm 3 mps 768 mmHg 53%
    16:00 +8°C° 0 mm 3 mps 768 mmHg 57%
    17:00 +8°C° 0 mm 3 mps 767 mmHg 61%
    18:00 +7°C° 0 mm 2 mps 768 mmHg 64%
    19:00 +7°C° 0 mm 2 mps 768 mmHg 66%
    20:00 +7°C° 0 mm 1 mps 768 mmHg 68%
    21:00 +7°C° 0 mm 1 mps 768 mmHg 69%
    22:00 +7°C° 0 mm 1 mps 768 mmHg 70%
    23:00 +6°C° 0 mm 1 mps 768 mmHg 71%

    Tomorrow, 24 February, Sunday

    Time Temperature Precipitation Wind Pressure Humidity
    00:00 +6°C° 0 mm 1 mps 768 mmHg 73%
    01:00 +5°C° 0 mm 1 mps 768 mmHg 75%
    02:00 +5°C° 0 mm 1 mps 768 mmHg 77%
    03:00 +4°C° 0 mm 1 mps 768 mmHg 78%
    04:00 +4°C° 0 mm 1 mps 768 mmHg 79%
    05:00 +4°C° 0 mm 1 mps 767 mmHg 80%
    06:00 +5°C° 0 mm 1 mps 767 mmHg 78%
    07:00 +5°C° 0 mm 1 mps 768 mmHg 76%
    08:00 +6°C° 0 mm 1 mps 768 mmHg 74%
    09:00 +8°C° 0 mm 1 mps 768 mmHg 67%
    10:00 +8°C° 0 mm 2 mps 768 mmHg 60%
    11:00 +10°C° 0 mm 2 mps 768 mmHg 52%
    12:00 +12°C° 0 mm 2 mps 767 mmHg 50%
    13:00 +12°C° 0 mm 2 mps 766 mmHg 48%
    14:00 +12°C° 0 mm 3 mps 766 mmHg 46%
    15:00 +11°C° 0 mm 3 mps 766 mmHg 51%
    16:00 +10°C° 0 mm 3 mps 766 mmHg 56%
    17:00 +9°C° 0 mm 3 mps 766 mmHg 60%
    18:00 +8°C° 0 mm 3 mps 766 mmHg 65%
    19:00 +7°C° 0 mm 3 mps 766 mmHg 70%
    20:00 +5°C° 0 mm 3 mps 767 mmHg 74%
    21:00 +6°C° 0 mm 2 mps 767 mmHg 77%
    22:00 +5°C° 0 mm 2 mps 767 mmHg 79%
    23:00 +6°C° 0 mm 1 mps 767 mmHg 82%

    Day after tomorrow, 25 February, Monday

    Time Temperature Precipitation Wind Pressure Humidity
    00:00 +6°C° 0 mm 1 mps 767 mmHg 83%
    01:00 +6°C° 0 mm 1 mps 767 mmHg 84%
    02:00 +6°C° 0 mm 1 mps 766 mmHg 85%
    03:00 +6°C° 0 mm 1 mps 766 mmHg 86%
    04:00 +6°C° 0 mm 1 mps 766 mmHg 88%
    05:00 +5°C° 0 mm 2 mps 766 mmHg 89%
    06:00 +6°C° 0 mm 2 mps 766 mmHg 87%
    07:00 +6°C° 0 mm 2 mps 767 mmHg 86%
    08:00 +7°C° 0 mm 2 mps 767 mmHg 84%
    09:00 +9°C° 0 mm 2 mps 767 mmHg 80%
    10:00 +11°C° 0 mm 3 mps 768 mmHg 76%
    11:00 +12°C° 0 mm 3 mps 768 mmHg 71%
    12:00 +12°C° 0 mm 3 mps 767 mmHg 71%
    13:00 +12°C° 0 mm 3 mps 767 mmHg 71%
    14:00 +12°C° 0 mm 3 mps 766 mmHg 71%
    15:00 +12°C° 0 mm 4 mps 766 mmHg 73%
    16:00 +11°C° 0 mm 4 mps 767 mmHg 75%
    17:00 +10°C° 0 mm 4 mps 767 mmHg 77%
    18:00 +8°C° 0 mm 4 mps 767 mmHg 80%
    19:00 +8°C° 0 mm 3 mps 768 mmHg 82%
    20:00 +7°C° 0 mm 3 mps 768 mmHg 84%
    21:00 +7°C° 0 mm 3 mps 768 mmHg 83%
    22:00 +7°C° 0 mm 3 mps 768 mmHg 82%
    23:00 +7°C° 0 mm 3 mps 769 mmHg 80%

    26 February, Tuesday

    Time Temperature Precipitation Wind Pressure Humidity
    00:00 +7°C° 0 mm 2 mps 769 mmHg 81%
    01:00 +7°C° 0 mm 2 mps 768 mmHg 81%
    02:00 +6°C° 0 mm 2 mps 768 mmHg 82%
    03:00 +5°C° 0 mm 3 mps 768 mmHg 83%
    04:00 +5°C° 0 mm 3 mps 768 mmHg 84%
    05:00 +5°C° 0 mm 3 mps 768 mmHg 85%
    06:00 +5°C° 0 mm 4 mps 768 mmHg 81%
    07:00 +6°C° 0 mm 4 mps 769 mmHg 77%
    08:00 +7°C° 0 mm 5 mps 769 mmHg 73%
    09:00 +8°C° 0 mm 5 mps 769 mmHg 67%
    10:00 +9°C° 0 mm 5 mps 769 mmHg 62%
    11:00 +10°C° 0 mm 5 mps 769 mmHg 57%
    12:00 +11°C° 0 mm 4 mps 769 mmHg 56%
    13:00 +11°C° 0 mm 4 mps 768 mmHg 55%
    14:00 +12°C° 0 mm 4 mps 768 mmHg 53%
    15:00 +11°C° 0 mm 4 mps 768 mmHg 57%
    16:00 +9°C° 0 mm 5 mps 767 mmHg 61%
    17:00 +8°C° 0 mm 5 mps 767 mmHg 65%
    18:00 +8°C° 0 mm 5 mps 767 mmHg 68%
    19:00 +7°C° 0 mm 5 mps 767 mmHg 70%
    20:00 +7°C° 0 mm 4 mps 767 mmHg 72%
    21:00 +7°C° 0.2 mm 4 mps 767 mmHg 74%
    22:00 +7°C° 0.2 mm 4 mps 768 mmHg 77%
    23:00 +6°C° 0.2 mm 4 mps 768 mmHg 79%

    27 February, Wednesday

    Time Temperature Precipitation Wind Pressure Humidity
    00:00 +6°C° 0.7 mm 4 mps 767 mmHg 82%
    01:00 +7°C° 0.7 mm 3 mps 767 mmHg 85%
    02:00 +7°C° 0.7 mm 3 mps 767 mmHg 88%
    03:00 +6°C° 0.2 mm 4 mps 766 mmHg 87%
    04:00 +6°C° 0.2 mm 4 mps 766 mmHg 86%
    05:00 +6°C° 0.2 mm 5 mps 765 mmHg 86%
    06:00 +6°C° 0 mm 5 mps 765 mmHg 85%
    07:00 +6°C° 0 mm 5 mps 765 mmHg 84%
    08:00 +7°C° 0 mm 5 mps 765 mmHg 83%
    09:00 +7°C° 0.1 mm 4 mps 765 mmHg 83%
    10:00 +7°C° 0.1 mm 4 mps 765 mmHg 82%
    11:00 +9°C° 0.1 mm 3 mps 765 mmHg 82%
    12:00 +8°C° 0.9 mm 4 mps 764 mmHg 83%
    13:00 +7°C° 0.9 mm 5 mps 763 mmHg 85%
    14:00 +7°C° 0.9 mm 6 mps 762 mmHg 87%
    15:00 +7°C° 3 mm 6 mps 762 mmHg 88%
    16:00 +5°C° 3 mm 6 mps 762 mmHg 90%
    17:00 +5°C° 3 mm 6 mps 762 mmHg 92%
    18:00 +5°C° 1.1 mm 6 mps 762 mmHg 92%
    19:00 +5°C° 1.1 mm 6 mps 763 mmHg 91%
    20:00 +5°C° 1.1 mm 6 mps 763 mmHg 91%
    21:00 +5°C° 0.3 mm 6 mps 763 mmHg 91%
    22:00 +6°C° 0.3 mm 5 mps 763 mmHg 91%
    23:00 +6°C° 0.3 mm 5 mps 763 mmHg 90%

    28 February, Thursday

    Time Temperature Precipitation Wind Pressure Humidity
    00:00 +6°C° 0 mm 5 mps 763 mmHg 91%
    01:00 +6°C° 0 mm 4 mps 763 mmHg 91%
    02:00 +6°C° 0 mm 4 mps 763 mmHg 91%
    03:00 +7°C° 0 mm 3 mps 763 mmHg 91%
    04:00 +7°C° 0 mm 3 mps 763 mmHg 91%
    05:00 +7°C° 0 mm 3 mps 763 mmHg 91%
    06:00 +8°C° 0 mm 3 mps 764 mmHg 89%
    07:00 +8°C° 0 mm 3 mps 764 mmHg 88%
    08:00 +8°C° 0 mm 3 mps 764 mmHg 86%
    09:00 +9°C° 0 mm 3 mps 765 mmHg 85%
    10:00 +10°C° 0 mm 3 mps 765 mmHg 83%
    11:00 +10°C° 0 mm 3 mps 765 mmHg 81%
    12:00 +10°C° 0 mm 3 mps 764 mmHg 82%
    13:00 +10°C° 0 mm 3 mps 764 mmHg 83%
    14:00 +10°C° 0 mm 3 mps 763 mmHg 84%
    15:00 +10°C° 0 mm 3 mps 764 mmHg 84%
    16:00 +10°C° 0 mm 3 mps 764 mmHg 85%
    17:00 +10°C° 0 mm 3 mps 764 mmHg 85%
    18:00 +10°C° 0 mm 2 mps 764 mmHg 88%
    19:00 +9°C° 0 mm 2 mps 765 mmHg 90%
    20:00 +9°C° 0 mm 2 mps 765 mmHg 93%
    21:00 +8°C° 0 mm 2 mps 765 mmHg 93%
    22:00 +8°C° 0 mm 2 mps 765 mmHg 93%
    23:00 +8°C° 0 mm 3 mps 765 mmHg 94%
    Show more